[[{"header":{"parameterUnit":"m.s-1","parameterCategory":1,"la1":30.2991,"la2":30.254,"lo1":-89.0895,"lo2":-89.0444,"dy":0.0017,"dx":0.0017,"nx":28,"ny":28,"refTime":"2023-10-17T03:00:00:Z","depth":0,"parameterNumber":2,"parameterNumberName":"U-component_of_WINDS"},"data":[0,0,0,0,0,0,0,0,0,0,0,0,0,0,0,0,0,0,0,0,0,0,0,0,0,0,0,0,0,0,0,0,0,0,0,0,0,0,0,0,0,0,0,0,0,0,0,0,0,0,0,0,0,0,0,0,0,0,1.2763,1.2764,0,1.2852,1.2853,1.2854,1.2889,1.2889,1.2889,1.2889,1.2983,1.2986,1.2988,0,0,0,0,0,0,0,0,0,0,0,0,0,1.2627,1.2629,1.2763,1.2764,1.2765,1.2851,1.2853,1.2854,1.2889,1.2889,1.2889,1.2889,1.2982,1.2985,1.2989,0,0,0,0,0,0,0,0,0,0,0,0,0,1.2698,1.263,1.2762,1.2793,1.2797,1.2851,1.2853,1.2854,1.2889,1.2889,1.2889,1.2889,1.2981,1.2985,1.2989,1.3021,0,0,1.3002,1.3003,0,0,0,0,0,0,0,0,1.2694,1.2703,1.2787,1.2791,1.2795,1.2859,1.2839,1.291,1.289,1.2854,1.2889,1.2888,1.2942,1.295,1.2967,1.3025,1.3029,1.3002,1.3004,1.3006,1.3007,0,0,0,0,0,0,0,1.2689,1.2699,1.2798,1.2789,1.2793,1.2803,1.2813,1.2853,1.2899,1.2857,1.286,1.287,1.2944,1.2963,1.297,1.3031,1.3002,1.3006,1.3008,1.301,1.312,1.312,0,0,0,0,0,0,1.2678,1.2695,1.2795,1.2801,1.2742,1.2806,1.2817,1.2839,1.2899,1.2908,1.287,1.2871,1.2956,1.2965,1.2973,1.3014,1.3006,1.301,1.3012,1.3119,1.312,1.312,0,0,0,0,0,0,1.2675,1.2687,1.2792,1.2748,1.2762,1.2809,1.2833,1.2841,1.2859,1.2908,1.2917,1.2881,1.2956,1.2967,1.3009,1.3018,1.3012,1.3016,1.3119,1.3119,1.312,1.3096,0,0,0,0,0,0,1.2671,1.2686,1.2697,1.2748,1.2765,1.2825,1.2834,1.2843,1.2866,1.2868,1.2921,1.2929,1.2957,1.3002,1.3013,1.3023,1.3019,1.3118,1.3119,1.312,1.3096,1.3096,1.3096,0,0,0,0,0,1.2666,1.2688,1.2698,1.271,1.278,1.2825,1.2834,1.2865,1.2867,1.2879,1.2911,1.2927,1.3015,1.3006,1.3018,1.303,1.3118,1.3119,1.312,1.3097,1.3096,1.3096,0,0,0,0,0,0,1.2638,1.2695,1.2707,1.2746,1.278,1.2831,1.2848,1.2864,1.2899,1.29,1.2938,1.295,1.2988,1.3013,1.3002,1.3064,1.3068,1.3071,1.3046,1.3046,1.3046,1.3039,1.3022,0,0,0,0,0,1.2636,1.2667,1.2715,1.2745,1.2762,1.2802,1.2822,1.2843,1.2881,1.2896,1.293,1.2967,1.3003,1.3026,1.3062,1.31,1.3112,1.3114,1.3114,1.3114,1.3116,1.3138,1.314,1.3124,1.3124,1.3124,0,0,1.2633,1.2668,1.2685,1.274,1.2769,1.2801,1.2814,1.2847,1.2871,1.2901,1.2942,1.2968,1.3012,1.3052,1.3071,1.3074,1.3123,1.3115,1.3114,1.3117,1.314,1.3141,1.3142,1.3124,1.3124,1.3124,0,0,1.2644,1.2673,1.2701,1.2729,1.2773,1.2799,1.2805,1.2854,1.2872,1.2913,1.2937,1.2966,1.3027,1.3057,1.3081,1.3102,1.3118,1.3112,1.3111,1.3132,1.3133,1.3134,1.3142,1.3144,1.3115,1.3115,1.3115,0,1.2635,1.2682,1.2713,1.2745,1.2768,1.2796,1.2824,1.2851,1.2904,1.292,1.2923,1.2999,1.3031,1.3078,1.3083,1.3101,1.311,1.3107,1.313,1.3132,1.3134,1.3141,1.3144,1.3114,1.3114,1.3114,1.3114,0,1.2669,1.2701,1.2719,1.2768,1.2794,1.2823,1.286,1.2882,1.29,1.2927,1.2968,1.3007,1.3051,1.3063,1.3082,1.3113,1.3114,1.3123,1.3127,1.3133,1.3141,1.3144,1.3112,1.3113,1.3113,1.3113,0,0,1.2664,1.273,1.2736,1.2758,1.2808,1.2834,1.2866,1.2907,1.2926,1.2961,1.2989,1.304,1.3048,1.3074,1.3097,1.3115,1.3129,1.3122,1.3124,1.3122,1.3166,1.3158,1.3161,1.314,1.3141,1.3141,1.3162,0,1.2681,1.2737,1.2766,1.281,1.2841,1.2867,1.2895,1.2928,1.2954,1.2984,1.3013,1.3048,1.3056,1.3072,1.3092,1.3123,1.3138,1.3122,1.3167,1.3168,1.3155,1.3165,1.3158,1.3176,1.3165,1.3166,1.3166,0,1.2709,1.2743,1.2789,1.2835,1.2849,1.2873,1.2913,1.2942,1.2981,1.2998,1.3027,1.3049,1.3083,1.3085,1.3133,1.3122,1.3142,1.316,1.3161,1.3167,1.3167,1.3171,1.3182,1.3184,1.3171,1.3171,1.317,0,1.2701,1.2758,1.2794,1.2812,1.2866,1.2883,1.2906,1.2945,1.2968,1.3003,1.3019,1.3058,1.308,1.311,1.3143,1.3141,1.3188,1.3192,1.3204,1.3203,1.3213,1.3212,1.3227,1.3226,1.3225,1.3225,1.3225,0,1.2717,1.2744,1.2791,1.2812,1.2844,1.2877,1.2908,1.2934,1.2968,1.2996,1.3021,1.3047,1.3088,1.3119,1.3144,1.3181,1.319,1.3206,1.3212,1.3203,1.3201,1.3217,1.3217,1.3226,1.3226,1.3226,1.3226,0,1.2713,1.2745,1.2785,1.2833,1.2846,1.2867,1.2908,1.2931,1.2957,1.2992,1.3002,1.3044,1.3081,1.3116,1.3167,1.3184,1.3221,1.3229,1.3207,1.3211,1.322,1.3219,1.3246,1.3252,1.3246,1.3246,1.3246,0,1.2721,1.2743,1.2792,1.2812,1.2835,1.2866,1.289,1.2923,1.2947,1.2992,1.3009,1.3049,1.3082,1.3141,1.3177,1.3216,1.3225,1.3232,1.3231,1.3221,1.3225,1.3223,1.3226,1.3231,1.3231,1.3231,1.3231,0,1.2732,1.2746,1.2778,1.2816,1.2843,1.2874,1.2907,1.2922,1.2961,1.2986,1.3025,1.305,1.3101,1.314,1.3183,1.3208,1.3227,1.3231,1.3236,1.3227,1.3213,1.3221,1.3206,1.323,1.323,1.323,1.3231,1.3231,1.2734,1.2755,1.2792,1.2827,1.2855,1.2884,1.2908,1.2936,1.2968,1.3012,1.303,1.3069,1.3107,1.3166,1.3191,1.3223,1.3227,1.3233,1.3235,1.3236,1.3235,1.3208,1.3231,1.3231,1.3231,1.3231,1.3231,0,1.2746,1.2772,1.2803,1.2847,1.2875,1.2888,1.2925,1.2947,1.298,1.3014,1.3046,1.309,1.3128,1.3166,1.3206,1.3223,1.3233,1.3233,1.3232,1.3237,1.3229,1.3221,1.3224,1.3224,1.3224,1.3224,1.3224,1.3224,1.2756,1.2791,1.281,1.2859,1.2885,1.2922,1.2941,1.2969,1.2996,1.3044,1.3075,1.3099,1.3134,1.3177,1.3212,1.3223,1.3236,1.3234,1.3246,1.3238,1.3238,1.3238,1.3231,1.3237,1.3237,1.3253,1.3253,1.3253]},{"header":{"parameterUnit":"m.s-1","parameterCategory":1,"la1":30.2991,"la2":30.254,"lo1":-89.0895,"lo2":-89.0444,"dy":0.0017,"dx":0.0017,"nx":28,"ny":28,"refTime":"2023-10-17T03:00:00:Z","depth":0,"parameterNumber":3,"parameterNumberName":"V-component_of_WINDS"},"data":[0,0,0,0,0,0,0,0,0,0,0,0,0,0,0,0,0,0,0,0,0,0,0,0,0,0,0,0,0,0,0,0,0,0,0,0,0,0,0,0,0,0,0,0,0,0,0,0,0,0,0,0,0,0,0,0,0,0,1.2124,1.2124,0,1.2075,1.2074,1.2074,1.2045,1.2045,1.2045,1.2045,1.1993,1.1992,1.1991,0,0,0,0,0,0,0,0,0,0,0,0,0,1.2191,1.219,1.2124,1.2124,1.2123,1.2075,1.2074,1.2074,1.2045,1.2045,1.2045,1.2045,1.1994,1.1992,1.1991,0,0,0,0,0,0,0,0,0,0,0,0,0,1.2154,1.219,1.2125,1.2103,1.2101,1.2075,1.2074,1.2073,1.2045,1.2045,1.2045,1.2045,1.1994,1.1993,1.1991,1.1982,0,0,1.1985,1.1984,0,0,0,0,0,0,0,0,1.2156,1.2152,1.2107,1.2105,1.2102,1.2066,1.2079,1.2043,1.2045,1.2066,1.2045,1.2044,1.2018,1.2014,1.2005,1.198,1.1978,1.1985,1.1984,1.1983,1.1982,0,0,0,0,0,0,0,1.2159,1.2154,1.2105,1.2106,1.2103,1.2095,1.209,1.2072,1.2043,1.2064,1.2062,1.2057,1.2016,1.2007,1.2004,1.1977,1.1985,1.1983,1.1982,1.1981,1.1939,1.1939,0,0,0,0,0,0,1.2165,1.2156,1.2106,1.2103,1.2129,1.2094,1.2088,1.2078,1.2044,1.2038,1.2057,1.2056,1.201,1.2006,1.2002,1.1987,1.1983,1.1981,1.198,1.1939,1.1939,1.1939,0,0,0,0,0,0,1.2167,1.2161,1.2108,1.2129,1.2122,1.2093,1.2082,1.2077,1.2067,1.2038,1.2033,1.2053,1.201,1.2004,1.1987,1.1985,1.198,1.1978,1.1939,1.1939,1.1939,1.196,0,0,0,0,0,0,1.2169,1.2162,1.2159,1.2129,1.2121,1.2095,1.2082,1.2076,1.2064,1.2062,1.2033,1.2028,1.2009,1.199,1.1985,1.1982,1.1977,1.1939,1.1939,1.1939,1.196,1.1961,1.1962,0,0,0,0,0,1.2171,1.2168,1.2159,1.2153,1.2117,1.2095,1.209,1.207,1.2064,1.2061,1.2041,1.2028,1.1986,1.1988,1.1982,1.198,1.1939,1.1939,1.1939,1.1959,1.1961,1.1962,0,0,0,0,0,0,1.2199,1.2164,1.2154,1.2141,1.2121,1.209,1.2086,1.2073,1.2054,1.2053,1.2027,1.2021,1.2005,1.1991,1.1993,1.1968,1.1961,1.196,1.1978,1.1979,1.1981,1.1984,1.1975,0,0,0,0,0,1.2203,1.2189,1.2159,1.215,1.2141,1.2115,1.2105,1.209,1.2069,1.206,1.204,1.2019,1.2001,1.1989,1.1971,1.1957,1.1949,1.1952,1.1954,1.1955,1.1954,1.1942,1.1943,1.1939,1.1939,1.1939,0,0,1.2213,1.2191,1.2184,1.2155,1.2138,1.2123,1.2108,1.2093,1.2081,1.2058,1.2039,1.2023,1.1999,1.1982,1.1973,1.1969,1.1953,1.1955,1.1956,1.1954,1.1942,1.1943,1.1943,1.1939,1.1939,1.1939,0,0,1.2221,1.2205,1.2194,1.2177,1.2152,1.2134,1.2131,1.2102,1.209,1.2071,1.2053,1.2037,1.2007,1.1989,1.1976,1.1975,1.1961,1.197,1.1977,1.1966,1.1966,1.1966,1.1963,1.1963,1.1969,1.1969,1.1969,0,1.2236,1.2213,1.2191,1.2176,1.2163,1.214,1.2128,1.2113,1.2082,1.2073,1.2069,1.2028,1.201,1.1987,1.1987,1.1978,1.1972,1.1973,1.1968,1.1968,1.1967,1.1964,1.1964,1.197,1.197,1.197,1.197,0,1.2231,1.2215,1.2209,1.218,1.2166,1.2153,1.2127,1.2116,1.2101,1.2084,1.2063,1.204,1.2015,1.2009,1.1996,1.1983,1.1981,1.1973,1.1965,1.1969,1.1966,1.1965,1.1972,1.1971,1.1971,1.1971,0,0,1.2257,1.2213,1.2212,1.2197,1.2165,1.2152,1.2137,1.2112,1.2102,1.2081,1.2066,1.204,1.2031,1.2016,1.2,1.199,1.1988,1.1982,1.1981,1.1983,1.197,1.1975,1.1975,1.1979,1.1978,1.1978,1.1971,0,1.2259,1.2232,1.221,1.219,1.2173,1.215,1.2137,1.2115,1.2098,1.208,1.206,1.2041,1.2032,1.2022,1.2012,1.199,1.1984,1.1991,1.1963,1.1962,1.1969,1.1973,1.198,1.1975,1.197,1.197,1.197,0,1.2259,1.2238,1.2217,1.2185,1.2177,1.2165,1.2139,1.2124,1.2098,1.2085,1.2067,1.205,1.2031,1.2025,1.1997,1.2002,1.1989,1.1976,1.1975,1.1971,1.1966,1.1968,1.1973,1.1972,1.1968,1.1968,1.1968,0,1.2278,1.2244,1.2226,1.2214,1.2177,1.2169,1.2153,1.2127,1.2113,1.209,1.208,1.2055,1.2042,1.2022,1.1998,1.1997,1.1971,1.1964,1.1959,1.196,1.1955,1.1955,1.1956,1.1948,1.1948,1.1949,1.1949,0,1.2283,1.227,1.2234,1.2222,1.2206,1.218,1.2165,1.2147,1.2123,1.2107,1.2086,1.207,1.204,1.202,1.2001,1.1979,1.1974,1.1962,1.1957,1.1963,1.1965,1.1954,1.1953,1.1948,1.1948,1.1948,1.1948,0,1.2301,1.2276,1.2254,1.222,1.2211,1.2201,1.2171,1.2158,1.2138,1.2118,1.2111,1.208,1.2056,1.203,1.1997,1.1984,1.1962,1.1956,1.1971,1.1968,1.1963,1.1963,1.1957,1.1953,1.1949,1.195,1.195,0,1.2305,1.2294,1.2258,1.2246,1.223,1.221,1.2195,1.2169,1.2154,1.2122,1.2112,1.2086,1.2064,1.2025,1.1999,1.1973,1.1965,1.1964,1.1961,1.1967,1.1963,1.1963,1.1961,1.1965,1.1965,1.1966,1.1966,0,1.2314,1.2302,1.2281,1.2256,1.2238,1.2217,1.2194,1.2185,1.2154,1.2137,1.2112,1.2095,1.206,1.2033,1.2004,1.1985,1.1969,1.1967,1.1964,1.197,1.1978,1.1972,1.1972,1.1967,1.1967,1.1967,1.1967,1.1967,1.2324,1.2312,1.2284,1.2261,1.2242,1.2221,1.2206,1.2184,1.2163,1.2133,1.2118,1.2092,1.2063,1.2021,1.2003,1.1981,1.1977,1.1973,1.1972,1.1971,1.1972,1.1982,1.1976,1.1976,1.1976,1.1976,1.1976,0,1.233,1.2311,1.229,1.2259,1.224,1.2227,1.2201,1.2186,1.2163,1.2138,1.2116,1.2085,1.2059,1.203,1.2001,1.1989,1.1981,1.1982,1.1982,1.1978,1.1979,1.1983,1.1989,1.1989,1.1989,1.1989,1.1989,1.1989,1.2331,1.231,1.2294,1.2262,1.2243,1.2217,1.2203,1.2183,1.2162,1.2129,1.2107,1.2088,1.206,1.2029,1.2003,1.1995,1.1985,1.1988,1.1978,1.1979,1.1978,1.1977,1.1981,1.1986,1.1986,1.1978,1.1978,1.1978]}]]